| time (UTC) | temp C | wind direction | speed KPH | gust KPH | rain 1hr cm | rain 24hr cm | rain mn cm | humidity % | barometer mb |
| 20260507092559 | 13 | 224 | 3.2 | 8.0 | 0.00 | 0.00 | 0.00 | 59 | 1019.9 |
| 20260507091558 | 13 | 227 | 1.6 | 8.0 | 0.00 | 0.00 | 0.00 | 59 | 1020.0 |
| 20260507090454 | 14 | 226 | 4.8 | 8.0 | 0.00 | 0.00 | 0.00 | 58 | 1020.1 |
| 20260507085454 | 14 | 55 | 1.6 | 4.8 | 0.00 | 0.00 | 0.00 | 57 | 1020.2 |
| 20260507084453 | 15 | 19 | 3.2 | 8.0 | 0.00 | 0.00 | 0.00 | 54 | 1020.3 |
| 20260507083452 | 16 | 232 | 0.0 | 9.7 | 0.00 | 0.00 | 0.00 | 52 | 1020.3 |
| 20260507082420 | 16 | 233 | 1.6 | 17.7 | 0.00 | 0.00 | 0.00 | 50 | 1020.4 |
| 20260507081419 | 16 | 244 | 3.2 | 17.7 | 0.00 | 0.00 | 0.00 | 49 | 1020.5 |
| 20260507080418 | 16 | 238 | 3.2 | 16.1 | 0.00 | 0.00 | 0.00 | 49 | 1020.5 |
| 20260507075417 | 16 | 232 | 3.2 | 14.5 | 0.00 | 0.00 | 0.00 | 48 | 1020.5 |
| 20260507074415 | 16 | 233 | 4.8 | 14.5 | 0.00 | 0.00 | 0.00 | 49 | 1020.4 |
| 20260507073311 | 16 | 242 | 3.2 | 12.9 | 0.00 | 0.00 | 0.00 | 50 | 1020.3 |
| 20260507072239 | 16 | 224 | 3.2 | 9.7 | 0.00 | 0.00 | 0.00 | 51 | 1020.1 |
| 20260507071238 | 16 | 225 | 3.2 | 9.7 | 0.00 | 0.00 | 0.00 | 49 | 1020.1 |
| 20260507070238 | 17 | 224 | 6.4 | 9.7 | 0.00 | 0.00 | 0.00 | 47 | 1020.1 |
| 20260507065237 | 17 | 230 | 1.6 | 11.3 | 0.00 | 0.00 | 0.00 | 47 | 1020.2 |
| 20260507064236 | 17 | 235 | 3.2 | 11.3 | 0.00 | 0.00 | 0.00 | 47 | 1020.1 |
| 20260507063235 | 17 | 226 | 3.2 | 11.3 | 0.00 | 0.00 | 0.00 | 46 | 1020.2 |
| 20260507062234 | 17 | 226 | 3.2 | 17.7 | 0.00 | 0.00 | 0.00 | 45 | 1020.3 |
| 20260507061131 | 17 | 224 | 3.2 | 19.3 | 0.00 | 0.00 | 0.00 | 45 | 1020.1 |
| 20260507060130 | 17 | 228 | 3.2 | 17.7 | 0.00 | 0.00 | 0.00 | 46 | 1020.0 |
| 20260507055058 | 17 | 226 | 3.2 | 17.7 | 0.00 | 0.00 | 0.00 | 47 | 1020.0 |
| 20260507054057 | 17 | 223 | 3.2 | 16.1 | 0.00 | 0.00 | 0.00 | 49 | 1020.0 |
| 20260507053024 | 17 | 223 | 3.2 | 16.1 | 0.00 | 0.00 | 0.00 | 48 | 1019.8 |
| 20260507051952 | 17 | 228 | 6.4 | 16.1 | 0.00 | 0.00 | 0.00 | 48 | 1019.7 |
| 20260507050951 | 17 | 223 | 4.8 | 14.5 | 0.00 | 0.00 | 0.00 | 48 | 1019.8 |
| 20260507045950 | 17 | 232 | 4.8 | 12.9 | 0.00 | 0.00 | 0.00 | 50 | 1019.6 |
| 20260507044949 | 16 | 232 | 4.8 | 14.5 | 0.00 | 0.00 | 0.00 | 53 | 1019.3 |
| 20260507043948 | 15 | 225 | 3.2 | 14.5 | 0.00 | 0.00 | 0.00 | 61 | 1019.1 |
| 20260507042947 | 15 | 175 | 1.6 | 6.4 | 0.00 | 0.00 | 0.00 | 69 | 1019.1 |
| 20260507041914 | 15 | 147 | 3.2 | 8.0 | 0.00 | 0.00 | 0.00 | 69 | 1019.0 |
| 20260507040842 | 16 | 156 | 3.2 | 8.0 | 0.00 | 0.00 | 0.00 | 69 | 1018.9 |
| 20260507035810 | 16 | 159 | 1.6 | 6.4 | 0.00 | 0.00 | 0.00 | 69 | 1018.8 |
| 20260507034738 | 16 | 146 | 0.0 | 3.2 | 0.00 | 0.00 | 0.00 | 68 | 1018.8 |
| 20260507033737 | 16 | 96 | 1.6 | 4.8 | 0.00 | 0.00 | 0.00 | 68 | 1018.8 |
| 20260507032705 | 16 | 94 | 1.6 | 4.8 | 0.00 | 0.00 | 0.00 | 67 | 1018.8 |
| 20260507031704 | 17 | 38 | 1.6 | 3.2 | 0.00 | 0.00 | 0.00 | 66 | 1018.8 |
| 20260507030703 | 17 | 37 | 0.0 | 3.2 | 0.00 | 0.00 | 0.00 | 66 | 1018.8 |
| 20260507025702 | 18 | 36 | 0.0 | 1.6 | 0.00 | 0.00 | 0.00 | 62 | 1018.9 |
| 20260507024700 | 18 | 36 | 1.6 | 1.6 | 0.00 | 0.00 | 0.00 | 61 | 1018.5 |
| 20260507023659 | 19 | 35 | 0.0 | 1.6 | 0.00 | 0.00 | 0.00 | 60 | 1018.6 |
| 20260507022658 | 20 | 35 | 0.0 | 0.0 | 0.00 | 0.00 | 0.00 | 55 | 1018.8 |
| 20260507021657 | 20 | 34 | 0.0 | 4.8 | 0.00 | 0.00 | 0.00 | 52 | 1018.7 |
| 20260507020656 | 20 | 35 | 0.0 | 4.8 | 0.00 | 0.00 | 0.00 | 50 | 1018.3 |
| 20260507015654 | 20 | 20 | 1.6 | 6.4 | 0.00 | 0.00 | 0.00 | 51 | 1018.3 |
| 20260507014654 | 20 | 12 | 0.0 | 6.4 | 0.00 | 0.00 | 0.00 | 50 | 1018.2 |
| 20260507013652 | 20 | 15 | 1.6 | 6.4 | 0.00 | 0.00 | 0.00 | 50 | 1018.1 |
| 20260507012651 | 20 | 20 | 3.2 | 6.4 | 0.00 | 0.00 | 0.00 | 51 | 1018.1 |
| 20260507011650 | 21 | 23 | 3.2 | 6.4 | 0.00 | 0.00 | 0.00 | 50 | 1018.0 |
| 20260507010618 | 21 | 19 | 1.6 | 6.4 | 0.00 | 0.00 | 0.00 | 50 | 1018.1 |
| 20260507005546 | 21 | 24 | 3.2 | 4.8 | 0.00 | 0.00 | 0.00 | 51 | 1018.1 |
| 20260507004513 | 21 | 18 | 3.2 | 4.8 | 0.00 | 0.00 | 0.00 | 50 | 1018.1 |
| 20260507003512 | 21 | 335 | 0.0 | 3.2 | 0.00 | 0.00 | 0.00 | 49 | 1018.1 |
| 20260507002409 | 21 | 16 | 1.6 | 4.8 | 0.00 | 0.00 | 0.00 | 50 | 1018.1 |
| 20260507001408 | 21 | 21 | 1.6 | 4.8 | 0.00 | 0.00 | 0.00 | 47 | 1018.1 |
| 20260507000407 | 21 | 17 | 3.2 | 6.4 | 0.00 | 0.00 | 0.00 | 48 | 1017.8 |
| 20260506235406 | 21 | 21 | 1.6 | 6.4 | 0.00 | 0.00 | 0.00 | 48 | 1017.7 |
| 20260506234406 | 21 | 61 | 1.6 | 6.4 | 0.00 | 0.00 | 0.00 | 46 | 1017.7 |
| 20260506233333 | 21 | 71 | 1.6 | 8.0 | 0.00 | 0.00 | 0.00 | 46 | 1017.7 |
| 20260506232332 | 21 | 17 | 3.2 | 8.0 | 0.00 | 0.00 | 0.00 | 48 | 1018.0 |
| 20260506231331 | 21 | 31 | 3.2 | 6.4 | 0.00 | 0.00 | 0.00 | 49 | 1017.8 |
| 20260506230259 | 21 | 5 | 3.2 | 6.4 | 0.00 | 0.00 | 0.00 | 47 | 1017.9 |
| 20260506225226 | 22 | 2 | 1.6 | 8.0 | 0.00 | 0.00 | 0.00 | 46 | 1018.3 |
| 20260506224155 | 22 | 10 | 1.6 | 8.0 | 0.00 | 0.00 | 0.00 | 47 | 1018.3 |
| 20260506223122 | 22 | 8 | 3.2 | 6.4 | 0.00 | 0.00 | 0.00 | 46 | 1018.4 |
| 20260506222121 | 23 | 6 | 1.6 | 8.0 | 0.00 | 0.00 | 0.00 | 44 | 1018.5 |
| 20260506221120 | 23 | 304 | 3.2 | 9.7 | 0.00 | 0.00 | 0.00 | 46 | 1018.6 |
| 20260506220017 | 23 | 328 | 1.6 | 14.5 | 0.00 | 0.00 | 0.00 | 45 | 1018.6 |
| 20260506215016 | 24 | 301 | 3.2 | 14.5 | 0.00 | 0.00 | 0.00 | 41 | 1019.0 |
| 20260506213913 | 23 | 294 | 3.2 | 16.1 | 0.00 | 0.00 | 0.00 | 41 | 1019.0 |
| 20260506212911 | 24 | 251 | 4.8 | 14.5 | 0.00 | 0.00 | 0.00 | 39 | 1019.0 |
| 20260506211910 | 23 | 286 | 6.4 | 16.1 | 0.00 | 0.00 | 0.00 | 41 | 1019.0 |
| 20260506210908 | 23 | 272 | 3.2 | 20.9 | 0.00 | 0.00 | 0.00 | 42 | 1019.4 |
| 20260506205907 | 23 | 254 | 4.8 | 20.9 | 0.00 | 0.00 | 0.00 | 42 | 1019.4 |
| 20260506204906 | 23 | 262 | 3.2 | 16.1 | 0.00 | 0.00 | 0.00 | 42 | 1019.7 |
| 20260506203905 | 23 | 266 | 3.2 | 14.5 | 0.00 | 0.00 | 0.00 | 42 | 1019.7 |
| 20260506202903 | 23 | 253 | 3.2 | 14.5 | 0.00 | 0.00 | 0.00 | 42 | 1019.7 |
| 20260506201902 | 23 | 260 | 3.2 | 19.3 | 0.00 | 0.00 | 0.00 | 42 | 1019.9 |
| 20260506200830 | 23 | 260 | 4.8 | 19.3 | 0.00 | 0.00 | 0.00 | 43 | 1019.9 |
| 20260506195758 | 23 | 232 | 3.2 | 19.3 | 0.00 | 0.00 | 0.00 | 40 | 1019.7 |
| 20260506194757 | 23 | 278 | 4.8 | 19.3 | 0.00 | 0.00 | 0.00 | 43 | 1020.1 |
| 20260506193756 | 23 | 239 | 3.2 | 14.5 | 0.00 | 0.00 | 0.00 | 38 | 1020.0 |
| 20260506192755 | 23 | 231 | 3.2 | 19.3 | 0.00 | 0.00 | 0.00 | 39 | 1020.0 |
| 20260506191754 | 23 | 230 | 3.2 | 19.3 | 0.00 | 0.00 | 0.00 | 39 | 1020.3 |
| 20260506190753 | 22 | 238 | 3.2 | 14.5 | 0.00 | 0.00 | 0.00 | 41 | 1020.3 |
| 20260506185752 | 22 | 248 | 3.2 | 16.1 | 0.00 | 0.00 | 0.00 | 39 | 1020.6 |
| 20260506184751 | 22 | 251 | 4.8 | 17.7 | 0.00 | 0.00 | 0.00 | 41 | 1020.5 |
| 20260506183750 | 22 | 223 | 4.8 | 19.3 | 0.00 | 0.00 | 0.00 | 42 | 1020.6 |
| 20260506182718 | 22 | 261 | 4.8 | 17.7 | 0.00 | 0.00 | 0.00 | 42 | 1020.6 |
| 20260506181717 | 22 | 275 | 3.2 | 17.7 | 0.00 | 0.00 | 0.00 | 41 | 1020.7 |
| 20260506180716 | 22 | 233 | 3.2 | 17.7 | 0.00 | 0.00 | 0.00 | 38 | 1020.7 |
| 20260506175714 | 22 | 230 | 3.2 | 17.7 | 0.00 | 0.00 | 0.00 | 36 | 1020.8 |
| 20260506174713 | 22 | 244 | 3.2 | 16.1 | 0.00 | 0.00 | 0.00 | 38 | 1020.7 |
| 20260506173712 | 21 | 252 | 4.8 | 14.5 | 0.00 | 0.00 | 0.00 | 38 | 1021.0 |
| 20260506172711 | 20 | 28 | 1.6 | 6.4 | 0.00 | 0.00 | 0.00 | 49 | 1020.9 |
| 20260506171710 | 19 | 46 | 1.6 | 6.4 | 0.00 | 0.00 | 0.00 | 51 | 1020.6 |
| 20260506170638 | 18 | 28 | 1.6 | 6.4 | 0.00 | 0.00 | 0.00 | 52 | 1020.9 |
| 20260506165637 | 17 | 48 | 1.6 | 4.8 | 0.00 | 0.00 | 0.00 | 54 | 1021.1 |
| 20260506164636 | 17 | 52 | 1.6 | 4.8 | 0.00 | 0.00 | 0.00 | 51 | 1021.0 |
| 20260506163604 | 17 | 52 | 1.6 | 4.8 | 0.00 | 0.00 | 0.00 | 50 | 1021.0 |
| 20260506162603 | 16 | 57 | 1.6 | 4.8 | 0.00 | 0.00 | 0.00 | 51 | 1020.9 |
| 20260506161602 | 16 | 36 | 3.2 | 4.8 | 0.00 | 0.00 | 0.00 | 53 | 1020.7 |
| 20260506160600 | 15 | 11 | 1.6 | 4.8 | 0.00 | 0.00 | 0.00 | 53 | 1020.6 |
| 20260506155559 | 15 | 19 | 1.6 | 4.8 | 0.00 | 0.00 | 0.00 | 54 | 1020.9 |
| 20260506154558 | 15 | 18 | 1.6 | 4.8 | 0.00 | 0.00 | 0.00 | 59 | 1020.9 |
| 20260506153557 | 14 | 28 | 1.6 | 4.8 | 0.00 | 0.00 | 0.00 | 58 | 1020.8 |
| 20260506152524 | 13 | 30 | 1.6 | 4.8 | 0.00 | 0.00 | 0.00 | 57 | 1020.8 |
| 20260506151523 | 13 | 342 | 1.6 | 4.8 | 0.00 | 0.00 | 0.00 | 57 | 1020.8 |
| 20260506150523 | 13 | 334 | 3.2 | 4.8 | 0.00 | 0.00 | 0.00 | 60 | 1020.8 |
| 20260506145521 | 12 | 107 | 1.6 | 3.2 | 0.00 | 0.00 | 0.00 | 61 | 1020.9 |
| 20260506144520 | 12 | 134 | 1.6 | 3.2 | 0.00 | 0.00 | 0.00 | 61 | 1020.9 |
| 20260506143448 | 11 | 134 | 0.0 | 3.2 | 0.00 | 0.00 | 0.00 | 64 | 1020.9 |
| 20260506142447 | 11 | 132 | 0.0 | 1.6 | 0.00 | 0.00 | 0.00 | 62 | 1020.9 |
| 20260506141446 | 10 | 132 | 0.0 | 1.6 | 0.00 | 0.00 | 0.00 | 65 | 1021.2 |
| 20260506140444 | 10 | 132 | 0.0 | 0.0 | 0.00 | 0.00 | 0.00 | 67 | 1020.8 |
| 20260506135444 | 9 | 132 | 0.0 | 0.0 | 0.00 | 0.00 | 0.00 | 70 | 1021.2 |
| 20260506134443 | 9 | 132 | 0.0 | 1.6 | 0.00 | 0.00 | 0.00 | 72 | 1021.1 |
| 20260506133410 | 8 | 132 | 0.0 | 4.8 | 0.00 | 0.00 | 0.00 | 74 | 1021.1 |
| 20260506132409 | 8 | 132 | 3.2 | 4.8 | 0.00 | 0.00 | 0.00 | 74 | 1020.7 |
| 20260506131408 | 8 | 136 | 1.6 | 4.8 | 0.00 | 0.00 | 0.00 | 74 | 1020.7 |
| 20260506130407 | 8 | 137 | 0.0 | 4.8 | 0.00 | 0.00 | 0.00 | 74 | 1020.4 |
| 20260506125334 | 8 | 146 | 1.6 | 3.2 | 0.00 | 0.00 | 0.00 | 74 | 1020.8 |
| 20260506124333 | 8 | 146 | 0.0 | 4.8 | 0.00 | 0.00 | 0.00 | 72 | 1020.5 |
| 20260506123332 | 8 | 146 | 1.6 | 4.8 | 0.00 | 0.00 | 0.00 | 73 | 1020.5 |
| 20260506122331 | 8 | 144 | 1.6 | 4.8 | 0.00 | 0.00 | 0.00 | 73 | 1020.5 |
| 20260506121330 | 8 | 140 | 1.6 | 4.8 | 0.00 | 0.00 | 0.00 | 73 | 1020.4 |
| 20260506120329 | 7 | 150 | 1.6 | 3.2 | 0.00 | 0.00 | 0.00 | 73 | 1019.8 |
| 20260506115328 | 7 | 151 | 0.0 | 3.2 | 0.00 | 0.00 | 0.00 | 72 | 1019.9 |
| 20260506114327 | 7 | 151 | 0.0 | 4.8 | 0.00 | 0.00 | 0.00 | 73 | 1019.9 |
| 20260506113254 | 7 | 150 | 3.2 | 4.8 | 0.00 | 0.00 | 0.00 | 73 | 1019.9 |
| 20260506112222 | 7 | 151 | 1.6 | 1.6 | 0.00 | 0.00 | 0.00 | 72 | 1019.8 |
| 20260506111222 | 7 | 151 | 1.6 | 1.6 | 0.00 | 0.00 | 0.00 | 72 | 1019.9 |
| 20260506110221 | 7 | 150 | 0.0 | 0.0 | 0.00 | 0.00 | 0.00 | 71 | 1019.9 |
| 20260506105148 | 8 | 150 | 0.0 | 3.2 | 0.00 | 0.00 | 0.00 | 70 | 1020.0 |
| 20260506104147 | 7 | 150 | 1.6 | 3.2 | 0.00 | 0.00 | 0.00 | 71 | 1020.0 |
| 20260506103146 | 7 | 150 | 0.0 | 4.8 | 0.00 | 0.00 | 0.00 | 71 | 1020.0 |
| 20260506102113 | 7 | 150 | 3.2 | 4.8 | 0.00 | 0.00 | 0.00 | 72 | 1019.6 |
| 20260506101112 | 7 | 150 | 1.6 | 3.2 | 0.00 | 0.00 | 0.00 | 71 | 1019.5 |
| 20260506100111 | 7 | 149 | 1.6 | 3.2 | 0.00 | 0.00 | 0.00 | 71 | 1019.6 |
| 20260506095111 | 7 | 150 | 0.0 | 3.2 | 0.00 | 0.00 | 0.00 | 69 | 1019.7 |
| 20260506094110 | 8 | 150 | 0.0 | 1.6 | 0.00 | 0.00 | 0.00 | 68 | 1019.6 |
| 20260506093109 | 8 | 150 | 1.6 | 4.8 | 0.00 | 0.00 | 0.00 | 67 | 1019.6 |